2017-081A

Last updated on Mon Dec 18 2017 00:15:03 GMT+0000 (Coordinated Universal Time)

1 43063U 17081A 17351.94349734 -.00003638 11501-4 00000+0 0 9995 2 43063 51.6360 202.8149 0010553 138.3107 4.4988 16.06510524 72
UTC large
Height (km)
Speed (km/s)
/
Latitude / Longitude
Inclination (degrees)
Orbital Period (minutes)
Azimuth
Elevation
Range (km)
Doppler Factor

Next 0 passes for location: London (51.5072 / 0.1276)

Sorry there are no passes over London.